Location: College Rock
(37.2713°N, 119.1740°W)
Time: 04:28:03
(UTC+00:00)

Cosmos 2322 Rocket - Pass Details

Date: 29 October 2020
Orbit: 832 x 851 km, 71.0° (Epoch: 23 November)

Event Time Altitude Azimuth Distance (km) Brightness Sun altitude
Rises 13:23:38 0° 345° (NNW) 3,415 5.1 -11.5°
Reaches altitude 10° 13:26:15 10° 352° (N) 2,473 4.5 -11.0°
Maximum altitude 13:31:35 40° 62° (ENE) 1,216 3.5 -10.0°
Drops below altitude 10° 13:36:51 10° 132° (SE) 2,448 5.6 -9.0°
Sets 13:39:25 0° 139° (SE) 3,376 6.2 -8.5°
